TimeCDT,TemperatureF,Dew PointF,Humidity,Sea Level PressureIn,VisibilityMPH,Wind Direction,Wind SpeedMPH,Gust SpeedMPH,PrecipitationIn,Events,Conditions,WindDirDegrees,DateUTC
12:15 AM,66.4,63.0,89,29.79,10.0,Calm,Calm,-,N/A,,Clear,0,2013-09-23 05:15:00
12:35 AM,67.1,62.6,85,29.79,10.0,Calm,Calm,-,N/A,,Clear,0,2013-09-23 05:35:00
12:55 AM,66.4,61.9,85,29.78,10.0,Calm,Calm,-,N/A,,Clear,0,2013-09-23 05:55:00
1:15 AM,66.2,62.6,88,29.78,10.0,Calm,Calm,-,N/A,,Clear,0,2013-09-23 06:15:00
1:35 AM,66.2,61.7,85,29.78,10.0,Calm,Calm,-,N/A,,Clear,0,2013-09-23 06:35:00
1:55 AM,65.5,61.9,88,29.78,10.0,Calm,Calm,-,N/A,,Clear,0,2013-09-23 06:55:00
2:15 AM,65.3,62.1,89,29.79,10.0,Calm,Calm,-,N/A,,Clear,0,2013-09-23 07:15:00
2:35 AM,65.5,62.1,89,29.78,10.0,Calm,Calm,-,N/A,,Clear,0,2013-09-23 07:35:00
2:55 AM,65.3,62.1,89,29.78,10.0,Calm,Calm,-,N/A,,Clear,0,2013-09-23 07:55:00
3:15 AM,65.3,61.9,89,29.78,10.0,Calm,Calm,-,N/A,,Clear,0,2013-09-23 08:15:00
3:35 AM,65.8,61.7,86,29.78,10.0,Calm,Calm,-,N/A,,Mostly Cloudy,0,2013-09-23 08:35:00
3:55 AM,66.4,62.1,86,29.78,10.0,Calm,Calm,-,N/A,,Overcast,0,2013-09-23 08:55:00
4:15 AM,66.2,62.6,88,29.78,10.0,Calm,Calm,-,N/A,,Scattered Clouds,0,2013-09-23 09:15:00
4:35 AM,66.0,62.6,89,29.78,10.0,Calm,Calm,-,N/A,,Mostly Cloudy,0,2013-09-23 09:35:00
4:55 AM,66.2,62.8,89,29.78,10.0,Calm,Calm,-,N/A,,Mostly Cloudy,0,2013-09-23 09:55:00
5:15 AM,67.1,63.0,87,29.79,10.0,Calm,Calm,-,N/A,,Overcast,0,2013-09-23 10:15:00
5:35 AM,67.6,63.7,87,29.79,10.0,Calm,Calm,-,N/A,,Overcast,0,2013-09-23 10:35:00
5:55 AM,68.0,63.5,85,29.79,10.0,Calm,Calm,-,N/A,,Overcast,0,2013-09-23 10:55:00
6:15 AM,68.0,63.0,84,29.78,10.0,Calm,Calm,-,N/A,,Scattered Clouds,0,2013-09-23 11:15:00
6:35 AM,67.5,62.6,84,29.78,10.0,Calm,Calm,-,N/A,,Scattered Clouds,0,2013-09-23 11:35:00
6:55 AM,66.2,62.6,88,29.79,10.0,Calm,Calm,-,N/A,,Clear,0,2013-09-23 11:55:00
7:15 AM,65.3,62.2,90,29.79,10.0,Calm,Calm,-,N/A,,Scattered Clouds,0,2013-09-23 12:15:00
7:35 AM,65.3,62.4,90,29.80,10.0,Calm,Calm,-,N/A,,Scattered Clouds,0,2013-09-23 12:35:00
7:55 AM,65.5,62.6,90,29.80,10.0,Calm,Calm,-,N/A,,Scattered Clouds,0,2013-09-23 12:55:00
8:15 AM,67.1,63.3,88,29.80,10.0,Calm,Calm,-,N/A,,Scattered Clouds,0,2013-09-23 13:15:00
8:35 AM,69.6,63.3,80,29.80,10.0,North,3.5,-,N/A,,Clear,10,2013-09-23 13:35:00
8:55 AM,70.9,64.4,80,29.80,10.0,Calm,Calm,-,N/A,,Clear,0,2013-09-23 13:55:00
9:15 AM,72.5,64.2,75,29.80,10.0,Calm,Calm,-,N/A,,Clear,0,2013-09-23 14:15:00
9:35 AM,74.1,64.9,73,29.81,10.0,Calm,Calm,-,N/A,,Clear,0,2013-09-23 14:35:00
9:55 AM,76.5,64.8,67,29.82,10.0,Calm,Calm,-,N/A,,Scattered Clouds,0,2013-09-23 14:55:00
10:15 AM,78.8,64.4,61,29.82,10.0,ESE,5.8,-,N/A,,Scattered Clouds,110,2013-09-23 15:15:00
10:35 AM,78.8,64.9,62,29.82,10.0,Calm,Calm,-,N/A,,Clear,0,2013-09-23 15:35:00
10:55 AM,81.5,66.7,61,29.82,10.0,ENE,4.6,-,N/A,,Clear,60,2013-09-23 15:55:00
11:15 AM,81.3,66.9,61,29.82,10.0,Calm,Calm,-,N/A,,Mostly Cloudy,0,2013-09-23 16:15:00
11:35 AM,81.7,66.9,61,29.82,10.0,Calm,Calm,-,N/A,,Overcast,0,2013-09-23 16:35:00
11:55 AM,82.4,66.6,59,29.82,10.0,Calm,Calm,-,N/A,,Overcast,0,2013-09-23 16:55:00
12:15 PM,83.7,67.1,57,29.81,10.0,Calm,Calm,-,N/A,,Mostly Cloudy,0,2013-09-23 17:15:00
12:35 PM,84.4,66.9,56,29.81,10.0,Calm,Calm,-,N/A,,Mostly Cloudy,0,2013-09-23 17:35:00
12:55 PM,84.2,67.1,56,29.80,10.0,Calm,Calm,-,N/A,,Mostly Cloudy,0,2013-09-23 17:55:00
1:15 PM,85.1,66.9,54,29.79,10.0,Calm,Calm,-,N/A,,Scattered Clouds,0,2013-09-23 18:15:00
1:35 PM,86.2,67.3,53,29.78,10.0,Calm,Calm,-,N/A,,Scattered Clouds,0,2013-09-23 18:35:00
1:55 PM,86.7,68.0,54,29.78,10.0,NE,3.5,-,N/A,,Scattered Clouds,50,2013-09-23 18:55:00
2:15 PM,86.7,68.4,54,29.77,10.0,SSE,3.5,-,N/A,,Scattered Clouds,160,2013-09-23 19:15:00
2:35 PM,88.0,69.4,54,29.76,10.0,SSE,3.5,-,N/A,,Clear,160,2013-09-23 19:35:00
2:55 PM,88.5,68.7,52,29.75,10.0,East,4.6,-,N/A,,Scattered Clouds,100,2013-09-23 19:55:00
3:15 PM,88.2,67.6,50,29.75,10.0,East,4.6,-,N/A,,Scattered Clouds,80,2013-09-23 20:15:00
3:35 PM,89.4,70.0,53,29.75,10.0,Calm,Calm,-,N/A,,Scattered Clouds,0,2013-09-23 20:35:00
3:55 PM,88.9,69.3,52,29.74,10.0,ENE,3.5,-,N/A,,Scattered Clouds,70,2013-09-23 20:55:00
4:15 PM,89.2,67.5,48,29.74,10.0,Calm,Calm,-,N/A,,Clear,0,2013-09-23 21:15:00
4:35 PM,89.6,66.6,46,29.73,10.0,Calm,Calm,-,N/A,,Clear,0,2013-09-23 21:35:00
4:55 PM,89.8,68.4,49,29.73,10.0,Calm,Calm,-,N/A,,Clear,0,2013-09-23 21:55:00
5:15 PM,90.0,70.2,52,29.73,10.0,Calm,Calm,-,N/A,,Clear,0,2013-09-23 22:15:00
5:35 PM,89.1,71.4,56,29.73,10.0,SE,3.5,-,N/A,,Clear,140,2013-09-23 22:35:00
5:55 PM,88.9,71.8,57,29.74,10.0,SE,3.5,-,N/A,,Scattered Clouds,130,2013-09-23 22:55:00
6:15 PM,88.3,72.1,59,29.73,10.0,Calm,Calm,-,N/A,,Clear,0,2013-09-23 23:15:00
6:35 PM,88.2,72.9,60,29.73,10.0,ESE,3.5,-,N/A,,Clear,120,2013-09-23 23:35:00
6:55 PM,88.0,72.7,60,29.73,10.0,Calm,Calm,-,N/A,,Clear,0,2013-09-23 23:55:00
7:15 PM,87.3,73.0,62,29.74,10.0,Calm,Calm,-,N/A,,Clear,0,2013-09-24 00:15:00
7:35 PM,86.0,74.1,68,29.74,10.0,Calm,Calm,-,N/A,,Clear,0,2013-09-24 00:35:00
7:55 PM,83.3,74.7,75,29.75,10.0,Calm,Calm,-,N/A,,Clear,0,2013-09-24 00:55:00
8:15 PM,82.9,74.5,75,29.76,10.0,Calm,Calm,-,N/A,,Clear,0,2013-09-24 01:15:00
8:35 PM,81.5,74.7,80,29.77,10.0,Calm,Calm,-,N/A,,Clear,0,2013-09-24 01:35:00
8:55 PM,80.2,74.3,82,29.78,10.0,Calm,Calm,-,N/A,,Clear,0,2013-09-24 01:55:00
9:15 PM,79.5,74.3,84,29.78,10.0,Calm,Calm,-,N/A,,Clear,0,2013-09-24 02:15:00
9:35 PM,78.8,74.3,86,29.79,10.0,Calm,Calm,-,N/A,,Clear,0,2013-09-24 02:35:00
9:55 PM,78.8,74.1,85,29.79,10.0,Calm,Calm,-,N/A,,Clear,0,2013-09-24 02:55:00
10:15 PM,78.1,73.9,87,29.80,10.0,Calm,Calm,-,N/A,,Clear,0,2013-09-24 03:15:00
10:35 PM,77.0,73.4,89,29.80,10.0,Calm,Calm,-,N/A,,Clear,0,2013-09-24 03:35:00
10:55 PM,76.5,73.2,90,29.80,10.0,Calm,Calm,-,N/A,,Clear,0,2013-09-24 03:55:00
11:15 PM,76.3,72.9,89,29.80,10.0,Calm,Calm,-,N/A,,Clear,0,2013-09-24 04:15:00
11:35 PM,76.3,73.4,91,29.80,10.0,Calm,Calm,-,N/A,,Clear,0,2013-09-24 04:35:00
11:55 PM,75.6,72.5,90,29.80,10.0,Calm,Calm,-,N/A,,Clear,0,2013-09-24 04:55:00